Flag for U.S.A. Weather past 2 weeks in Reston, Virginia, U.S.A.

Now
48 °F

Mostly cloudy.


Feels Like: 44 °F
Forecast: 36 / 43 °F
Wind: 9 mph from North

Location: Washington-Dulles International Airport

Current Time: Dec 28, 2014 at 10:10:52 PM

Latest Report: Dec 28, 2014 at 8:52 PM


Visibility: 10 mi

Pressure: 30.06 "Hg

Humidity: 74%

Dew point: 40 °F

Location of RestonLocation

Historic Weather in Reston — Graph

°F

Reston temperature yesterday

Maximum temperature yesterday: 58 °F (at 1:52 PM)
Minimum temperature yesterday: 28 °F (at 2:52 AM)
Average temperature yesterday: 41 °F

Past Weeks' High & Low Weather Summary

 TemperatureHumidityPressure
High58 °F (Dec 27, 1:52 PM)100% (Dec 15, 11:52 PM)30.37 "Hg (Dec 15, 11:52 PM)
Low20 °F (Dec 20, 5:52 AM)28% (Dec 27, 3:52 PM)29.55 "Hg (Dec 24, 10:58 PM)
Average39 °F77%30.09 "Hg
* Reported Dec 13 8:52 PM — Dec 28 8:52 PM, Reston, Weather by CustomWeather, © 2014

Note: Actual official high and low records may vary slightly from our data, if they occured in-between our weather recording intervals... More about our weather records

Advertising

Reston weather history for previous 24 hours

 ConditionsComfort  
Time TempWeatherWind HumidityBarometerVisibility
8:52 PM
Dec 28
48 °FMostly cloudy.9 mph74%30.06 "Hg10 mi
7:52 PM49 °FOvercast.5 mph80%30.05 "Hg10 mi
6:52 PM50 °FOvercast.7 mph83%30.03 "Hg10 mi
5:52 PM49 °FMostly cloudy.5 mph90%30.01 "Hg10 mi
4:52 PM49 °FLight rain. Mostly cloudy.6 mph90%30.01 "Hg7 mi
3:52 PM52 °FLight rain. More clouds than sun.No wind83%29.98 "Hg10 mi
2:52 PM53 °FLight rain. Cloudy.No wind83%29.96 "Hg10 mi
1:52 PM54 °FCloudy.No wind74%29.94 "Hg10 mi
12:52 PM56 °FCloudy.No wind58%29.95 "Hg10 mi
11:52 AM55 °FBroken clouds.3 mph59%29.97 "Hg10 mi
10:52 AM52 °FCloudy.3 mph69%29.99 "Hg10 mi
9:52 AM49 °FCloudy.No wind71%29.98 "Hg10 mi
8:52 AM45 °FPartly sunny.No wind80%29.98 "Hg10 mi
7:52 AM44 °FBroken clouds.No wind82%29.96 "Hg10 mi
6:52 AM45 °FPassing clouds.No wind76%29.94 "Hg10 mi
5:52 AM48 °FOvercast.No wind68%29.92 "Hg10 mi
4:52 AM48 °FOvercast.5 mph66%29.92 "Hg10 mi
3:52 AM47 °FMostly cloudy.6 mph71%29.94 "Hg10 mi
2:52 AM47 °FPassing clouds.6 mph69%29.97 "Hg10 mi
1:52 AM46 °FPassing clouds.8 mph68%29.98 "Hg10 mi
12:52 AM45 °FPassing clouds.7 mph71%30.01 "Hg10 mi
11:52 PM
Dec 27
39 °FPassing clouds.3 mph79%30.06 "Hg10 mi
10:52 PM38 °FPartly cloudy.5 mph79%30.11 "Hg10 mi
Weather by CustomWeather, © 2014

See weather overviewHow to use our weather pages